Location: Unspecified
(43.4680°N, 87.1740°E)
Time: 16:15:00
(UTC+00:00)

Iridium 2 - Pass Details

Date: 17 January 2020
Orbit: 503 x 518 km, 85.5° (Epoch: 18 February)

Event Time Altitude Azimuth Distance (km) Brightness Sun altitude
Rises 23:20:39 0° 177° (S) 2,627 7.4 -24.9°
Reaches altitude 10° 23:22:47 10° 175° (S) 1,745 6.5 -24.5°
Maximum altitude 23:26:34 70° 92° (E) 557 3.9 -23.8°
Enters shadow 23:27:28 48° 27° (NNE) 683 4.3 -23.7°
Exits shadow 23:28:25 29° 15° (NNE) 983 5.1 -23.5°
Drops below altitude 10° 23:30:24 10° 9° (N) 1,758 6.4 -23.1°
Sets 23:32:32 0° 7° (N) 2,650 7.3 -22.8°
